,,PressureMeas_1m,,PRMeasQMR101_1,,RHStat155_1m_1,,SRMeasQMS101R_1m,,TAStat155_1m_1,,GenWind_1,,GenWind_1,
2017-04-02, 00:00:06,VALID,919.677,VALID,0.0,VALID,95.287,VALID,0.012,VALID,20.463,VALID,265.0,VALID,0.596,
2017-04-02, 00:01:06,VALID,919.647,VALID,0.0,VALID,95.388,VALID,0.027,VALID,20.43,VALID,265.0,VALID,0.673,
2017-04-02, 00:02:06,VALID,919.608,VALID,0.0,VALID,95.332,VALID,0.014,VALID,20.427,VALID,286.0,VALID,0.37,
2017-04-02, 00:03:06,VALID,919.598,VALID,0.0,VALID,95.553,VALID,0.015,VALID,20.43,VALID,294.0,VALID,0.328,
2017-04-02, 00:04:06,VALID,919.571,VALID,0.0,VALID,95.782,VALID,0.015,VALID,20.434,VALID,360.0,VALID,0.18,
2017-04-02, 00:05:06,VALID,919.553,VALID,0.0,VALID,95.852,VALID,0.016,VALID,20.449,VALID,16.0,VALID,0.471,
2017-04-02, 00:06:06,VALID,919.534,VALID,0.0,VALID,95.806,VALID,0.035,VALID,20.456,VALID,12.0,VALID,0.574,
2017-04-02, 00:07:06,VALID,919.503,VALID,0.0,VALID,95.735,VALID,0.029,VALID,20.462,VALID,360.0,VALID,1.11,
2017-04-02, 00:08:06,VALID,919.473,VALID,0.0,VALID,95.516,VALID,0.043,VALID,20.418,VALID,10.0,VALID,0.902,
2017-04-02, 00:09:06,VALID,919.459,VALID,0.0,VALID,95.643,VALID,0.037,VALID,20.373,VALID,16.0,VALID,0.861,
2017-04-02, 00:10:06,VALID,919.457,VALID,0.0,VALID,95.9,VALID,0.045,VALID,20.38,VALID,4.0,VALID,0.614,
2017-04-02, 00:11:06,VALID,919.435,VALID,0.0,VALID,95.872,VALID,0.049,VALID,20.398,VALID,12.0,VALID,0.576,
2017-04-02, 00:12:06,VALID,919.422,VALID,0.0,VALID,95.695,VALID,0.036,VALID,20.409,VALID,16.0,VALID,0.677,
2017-04-02, 00:13:06,VALID,919.415,VALID,0.0,VALID,95.575,VALID,0.039,VALID,20.447,VALID,18.0,VALID,0.544,
2017-04-02, 00:14:06,VALID,919.413,VALID,0.0,VALID,95.498,VALID,0.038,VALID,20.467,VALID,27.0,VALID,0.487,
2017-04-02, 00:15:06,VALID,919.409,VALID,0.0,VALID,95.427,VALID,0.038,VALID,20.463,VALID,22.0,VALID,0.591,
2017-04-02, 00:16:06,VALID,919.394,VALID,0.0,VALID,95.305,VALID,0.031,VALID,20.432,VALID,22.0,VALID,0.365,
2017-04-02, 00:17:06,VALID,919.379,VALID,0.0,VALID,95.547,VALID,0.031,VALID,20.443,VALID,24.0,VALID,0.395,
2017-04-02, 00:18:06,VALID,919.368,VALID,0.0,VALID,95.461,VALID,0.038,VALID,20.438,VALID,22.0,VALID,0.158,
2017-04-02, 00:19:06,VALID,919.337,VALID,0.0,VALID,95.509,VALID,0.042,VALID,20.45,VALID,22.0,VALID,0.147,
2017-04-02, 00:20:06,VALID,919.325,VALID,0.0,VALID,95.428,VALID,0.028,VALID,20.44,VALID,18.0,VALID,0.212,
2017-04-02, 00:21:06,VALID,919.289,VALID,0.0,VALID,95.313,VALID,-0.024,VALID,20.421,VALID,11.0,VALID,0.279,
2017-04-02, 00:22:06,VALID,919.268,VALID,0.0,VALID,95.425,VALID,-0.009,VALID,20.408,VALID,7.0,VALID,0.34,
2017-04-02, 00:23:06,VALID,919.239,VALID,0.0,VALID,95.328,VALID,0.007,VALID,20.376,VALID,7.0,VALID,0.334,
2017-04-02, 00:24:06,VALID,919.228,VALID,0.0,VALID,95.496,VALID,-0.012,VALID,20.34,VALID,358.0,VALID,0.472,
2017-04-02, 00:25:06,VALID,919.233,VALID,0.0,VALID,95.662,VALID,0.006,VALID,20.316,VALID,9.0,VALID,0.442,
2017-04-02, 00:26:06,VALID,919.233,VALID,0.0,VALID,95.871,VALID,-0.021,VALID,20.324,VALID,5.0,VALID,0.246,
2017-04-02, 00:27:06,VALID,919.252,VALID,0.0,VALID,95.879,VALID,-0.022,VALID,20.314,VALID,344.0,VALID,0.124,
2017-04-02, 00:28:06,VALID,919.257,VALID,0.0,VALID,95.883,VALID,-0.015,VALID,20.309,VALID,340.0,VALID,0.092,
2017-04-02, 00:29:06,VALID,919.273,VALID,0.0,VALID,95.897,VALID,-0.027,VALID,20.313,VALID,339.0,VALID,0.02,
2017-04-02, 00:30:06,VALID,919.277,VALID,0.0,VALID,95.906,VALID,-0.024,VALID,20.317,VALID,339.0,VALID,0.078,
2017-04-02, 00:31:06,VALID,919.28,VALID,0.0,VALID,95.828,VALID,-0.017,VALID,20.309,VALID,339.0,VALID,0.145,
2017-04-02, 00:32:06,VALID,919.281,VALID,0.0,VALID,95.844,VALID,-0.016,VALID,20.291,VALID,339.0,VALID,0.117,
2017-04-02, 00:33:06,VALID,919.266,VALID,0.0,VALID,95.885,VALID,-0.015,VALID,20.282,VALID,340.0,VALID,0.256,
2017-04-02, 00:34:06,VALID,919.264,VALID,0.0,VALID,95.919,VALID,-0.018,VALID,20.288,VALID,337.0,VALID,0.261,
2017-04-02, 00:35:06,VALID,919.26,VALID,0.0,VALID,95.932,VALID,-0.0,VALID,20.306,VALID,336.0,VALID,0.109,
2017-04-02, 00:36:06,VALID,919.258,VALID,0.0,VALID,95.821,VALID,0.05,VALID,20.312,VALID,336.0,VALID,0.076,
2017-04-02, 00:37:06,VALID,919.242,VALID,0.0,VALID,95.828,VALID,0.036,VALID,20.318,VALID,335.0,VALID,0.067,
2017-04-02, 00:38:06,VALID,919.244,VALID,0.0,VALID,95.86,VALID,0.034,VALID,20.35,VALID,335.0,VALID,0.071,
2017-04-02, 00:39:06,VALID,919.238,VALID,0.0,VALID,95.831,VALID,0.045,VALID,20.371,VALID,336.0,VALID,0.001,
2017-04-02, 00:40:06,VALID,919.244,VALID,0.0,VALID,95.735,VALID,0.031,VALID,20.396,VALID,336.0,VALID,0.018,
2017-04-02, 00:41:06,VALID,919.227,VALID,0.0,VALID,95.473,VALID,0.029,VALID,20.391,VALID,336.0,VALID,0.029,
2017-04-02, 00:42:06,VALID,919.223,VALID,0.0,VALID,95.527,VALID,0.03,VALID,20.395,VALID,337.0,VALID,0.19,
2017-04-02, 00:43:06,VALID,919.207,VALID,0.0,VALID,95.396,VALID,0.041,VALID,20.387,VALID,340.0,VALID,0.199,
2017-04-02, 00:44:06,VALID,919.201,VALID,0.0,VALID,95.407,VALID,0.048,VALID,20.364,VALID,355.0,VALID,0.252,
2017-04-02, 00:45:06,VALID,919.181,VALID,0.0,VALID,95.546,VALID,0.043,VALID,20.331,VALID,12.0,VALID,0.436,
2017-04-02, 00:46:06,VALID,919.166,VALID,0.0,VALID,95.731,VALID,0.035,VALID,20.314,VALID,350.0,VALID,0.605,
2017-04-02, 00:47:06,VALID,919.154,VALID,0.0,VALID,95.791,VALID,0.036,VALID,20.3,VALID,352.0,VALID,0.42,
2017-04-02, 00:48:06,VALID,919.126,VALID,0.0,VALID,95.892,VALID,0.031,VALID,20.292,VALID,344.0,VALID,0.361,
2017-04-02, 00:49:06,VALID,919.106,VALID,0.0,VALID,95.934,VALID,0.03,VALID,20.283,VALID,354.0,VALID,0.187,
2017-04-02, 00:50:06,VALID,919.095,VALID,0.0,VALID,95.987,VALID,0.01,VALID,20.276,VALID,355.0,VALID,0.18,
2017-04-02, 00:51:06,VALID,919.078,VALID,0.0,VALID,95.935,VALID,-0.056,VALID,20.266,VALID,6.0,VALID,0.503,
2017-04-02, 00:52:06,VALID,919.073,VALID,0.0,VALID,95.972,VALID,-0.059,VALID,20.262,VALID,7.0,VALID,0.316,
2017-04-02, 00:53:06,VALID,919.048,VALID,0.0,VALID,96.052,VALID,-0.039,VALID,20.27,VALID,348.0,VALID,0.408,
2017-04-02, 00:54:06,VALID,919.044,VALID,0.0,VALID,95.979,VALID,-0.038,VALID,20.267,VALID,13.0,VALID,0.404,
2017-04-02, 00:55:06,VALID,919.033,VALID,0.0,VALID,95.995,VALID,-0.047,VALID,20.27,VALID,353.0,VALID,0.373,
2017-04-02, 00:56:06,VALID,919.017,VALID,0.0,VALID,95.944,VALID,-0.038,VALID,20.267,VALID,340.0,VALID,0.523,
2017-04-02, 00:57:06,VALID,919.01,VALID,0.0,VALID,95.946,VALID,-0.051,VALID,20.244,VALID,4.0,VALID,0.571,
2017-04-02, 00:58:06,VALID,919.004,VALID,0.0,VALID,96.064,VALID,-0.036,VALID,20.23,VALID,6.0,VALID,0.183,
2017-04-02, 00:59:06,VALID,919.001,VALID,0.0,VALID,96.186,VALID,-0.029,VALID,20.247,VALID,4.0,VALID,0.055,
2017-04-02, 01:00:06,VALID,918.985,VALID,0.0,VALID,96.213,VALID,-0.038,VALID,20.269,VALID,4.0,VALID,0.213,
2017-04-02, 01:01:06,VALID,918.987,VALID,0.0,VALID,96.012,VALID,-0.04,VALID,20.262,VALID,349.0,VALID,0.496,
2017-04-02, 01:02:06,VALID,918.992,VALID,0.0,VALID,95.985,VALID,-0.057,VALID,20.272,VALID,345.0,VALID,0.479,
2017-04-02, 01:03:06,VALID,919.0,VALID,0.0,VALID,95.931,VALID,-0.044,VALID,20.298,VALID,353.0,VALID,0.324,
2017-04-02, 01:04:06,VALID,918.99,VALID,0.0,VALID,95.816,VALID,-0.043,VALID,20.329,VALID,7.0,VALID,0.379,
2017-04-02, 01:05:06,VALID,918.974,VALID,0.0,VALID,95.607,VALID,-0.028,VALID,20.349,VALID,4.0,VALID,0.494,
2017-04-02, 01:06:06,VALID,918.973,VALID,0.0,VALID,95.37,VALID,0.028,VALID,20.361,VALID,337.0,VALID,0.316,
2017-04-02, 01:07:06,VALID,918.969,VALID,0.0,VALID,95.333,VALID,0.03,VALID,20.382,VALID,343.0,VALID,0.529,
2017-04-02, 01:08:06,VALID,918.937,VALID,0.0,VALID,95.193,VALID,0.027,VALID,20.377,VALID,7.0,VALID,0.901,
2017-04-02, 01:09:06,VALID,918.926,VALID,0.0,VALID,95.178,VALID,0.031,VALID,20.355,VALID,29.0,VALID,0.884,
2017-04-02, 01:10:06,VALID,918.917,VALID,0.0,VALID,95.261,VALID,0.023,VALID,20.334,VALID,4.0,VALID,0.705,
2017-04-02, 01:11:06,VALID,918.919,VALID,0.0,VALID,95.382,VALID,0.029,VALID,20.326,VALID,329.0,VALID,0.686,
2017-04-02, 01:12:06,VALID,918.899,VALID,0.0,VALID,95.475,VALID,0.019,VALID,20.31,VALID,339.0,VALID,0.178,
2017-04-02, 01:13:06,VALID,918.888,VALID,0.0,VALID,95.56,VALID,0.013,VALID,20.306,VALID,357.0,VALID,0.666,
2017-04-02, 01:14:06,VALID,918.871,VALID,0.0,VALID,95.51,VALID,0.022,VALID,20.303,VALID,357.0,VALID,0.788,
2017-04-02, 01:15:06,VALID,918.876,VALID,0.0,VALID,95.588,VALID,0.033,VALID,20.302,VALID,347.0,VALID,0.592,
2017-04-02, 01:16:06,VALID,918.853,VALID,0.0,VALID,95.659,VALID,0.038,VALID,20.295,VALID,349.0,VALID,0.836,
2017-04-02, 01:17:06,VALID,918.848,VALID,0.0,VALID,95.518,VALID,0.04,VALID,20.279,VALID,6.0,VALID,1.31,
2017-04-02, 01:18:06,VALID,918.821,VALID,0.0,VALID,95.244,VALID,0.023,VALID,20.264,VALID,360.0,VALID,1.327,
2017-04-02, 01:19:07,VALID,918.825,VALID,0.0,VALID,94.886,VALID,0.034,VALID,20.332,VALID,347.0,VALID,1.018,
2017-04-02, 01:20:07,VALID,918.814,VALID,0.0,VALID,94.906,VALID,0.024,VALID,20.382,VALID,341.0,VALID,0.571,
2017-04-02, 01:21:07,VALID,918.806,VALID,0.0,VALID,94.887,VALID,-0.021,VALID,20.387,VALID,328.0,VALID,0.43,
2017-04-02, 01:22:07,VALID,918.783,VALID,0.0,VALID,95.017,VALID,-0.036,VALID,20.376,VALID,306.0,VALID,0.233,
2017-04-02, 01:23:07,VALID,918.771,VALID,0.0,VALID,95.259,VALID,-0.029,VALID,20.371,VALID,292.0,VALID,0.145,
2017-04-02, 01:24:07,VALID,918.759,VALID,0.0,VALID,95.564,VALID,-0.015,VALID,20.368,VALID,279.0,VALID,0.108,
2017-04-02, 01:25:07,VALID,918.743,VALID,0.0,VALID,95.704,VALID,-0.012,VALID,20.352,VALID,312.0,VALID,0.126,
2017-04-02, 01:26:07,VALID,918.736,VALID,0.0,VALID,95.853,VALID,-0.024,VALID,20.316,VALID,7.0,VALID,0.541,
2017-04-02, 01:27:07,VALID,918.708,VALID,0.0,VALID,95.816,VALID,-0.024,VALID,20.306,VALID,358.0,VALID,0.195,
2017-04-02, 01:28:07,VALID,918.707,VALID,0.0,VALID,95.893,VALID,-0.029,VALID,20.307,VALID,346.0,VALID,0.033,
2017-04-02, 01:29:07,VALID,918.691,VALID,0.0,VALID,95.999,VALID,-0.024,VALID,20.298,VALID,346.0,VALID,0.0,
2017-04-02, 01:30:07,VALID,918.691,VALID,0.0,VALID,96.068,VALID,-0.023,VALID,20.289,VALID,342.0,VALID,0.0,
2017-04-02, 01:31:07,VALID,918.677,VALID,0.0,VALID,96.103,VALID,-0.021,VALID,20.289,VALID,261.0,VALID,0.013,
2017-04-02, 01:32:07,VALID,918.684,VALID,0.0,VALID,96.231,VALID,-0.023,VALID,20.264,VALID,251.0,VALID,0.043,
2017-04-02, 01:33:07,VALID,918.687,VALID,0.0,VALID,96.39,VALID,-0.019,VALID,20.247,VALID,253.0,VALID,0.017,
2017-04-02, 01:34:07,VALID,918.684,VALID,0.0,VALID,96.462,VALID,-0.02,VALID,20.235,VALID,259.0,VALID,0.011,
2017-04-02, 01:35:07,VALID,918.683,VALID,0.0,VALID,96.569,VALID,-0.003,VALID,20.222,VALID,297.0,VALID,0.008,
2017-04-02, 01:36:07,VALID,918.66,VALID,0.0,VALID,96.647,VALID,0.019,VALID,20.226,VALID,320.0,VALID,0.036,
2017-04-02, 01:37:07,VALID,918.665,VALID,0.0,VALID,96.657,VALID,0.024,VALID,20.237,VALID,331.0,VALID,0.081,
2017-04-02, 01:38:07,VALID,918.64,VALID,0.0,VALID,96.632,VALID,0.024,VALID,20.235,VALID,355.0,VALID,0.172,
2017-04-02, 01:39:07,VALID,918.646,VALID,0.0,VALID,96.578,VALID,0.027,VALID,20.24,VALID,356.0,VALID,0.136,
2017-04-02, 01:40:07,VALID,918.632,VALID,0.0,VALID,96.515,VALID,0.026,VALID,20.244,VALID,360.0,VALID,0.059,
2017-04-02, 01:41:07,VALID,918.626,VALID,0.0,VALID,96.446,VALID,0.012,VALID,20.224,VALID,1.0,VALID,0.01,
2017-04-02, 01:42:07,VALID,918.608,VALID,0.0,VALID,96.496,VALID,0.013,VALID,20.228,VALID,1.0,VALID,0.034,
2017-04-02, 01:43:07,VALID,918.599,VALID,0.0,VALID,96.401,VALID,0.006,VALID,20.219,VALID,1.0,VALID,0.044,
2017-04-02, 01:44:07,VALID,918.6,VALID,0.0,VALID,96.339,VALID,0.018,VALID,20.19,VALID,1.0,VALID,0.041,
2017-04-02, 01:45:07,VALID,918.583,VALID,0.0,VALID,96.425,VALID,0.019,VALID,20.175,VALID,4.0,VALID,0.104,
2017-04-02, 01:46:07,VALID,918.582,VALID,0.0,VALID,96.544,VALID,0.024,VALID,20.181,VALID,6.0,VALID,0.058,
2017-04-02, 01:47:07,VALID,918.573,VALID,0.0,VALID,96.474,VALID,0.024,VALID,20.174,VALID,6.0,VALID,0.178,
2017-04-02, 01:48:07,VALID,918.568,VALID,0.0,VALID,96.348,VALID,0.024,VALID,20.157,VALID,6.0,VALID,0.344,
2017-04-02, 01:49:07,VALID,918.563,VALID,0.0,VALID,96.372,VALID,0.022,VALID,20.124,VALID,6.0,VALID,0.221,
2017-04-02, 01:50:07,VALID,918.573,VALID,0.0,VALID,96.413,VALID,0.008,VALID,20.104,VALID,5.0,VALID,0.322,
2017-04-02, 01:51:07,VALID,918.566,VALID,0.0,VALID,96.468,VALID,-0.014,VALID,20.077,VALID,10.0,VALID,0.477,
2017-04-02, 01:52:07,VALID,918.582,VALID,0.0,VALID,96.623,VALID,-0.019,VALID,20.078,VALID,14.0,VALID,0.629,
2017-04-02, 01:53:07,VALID,918.583,VALID,0.0,VALID,96.665,VALID,-0.016,VALID,20.091,VALID,12.0,VALID,0.654,
2017-04-02, 01:54:07,VALID,918.576,VALID,0.0,VALID,96.642,VALID,-0.013,VALID,20.111,VALID,5.0,VALID,0.444,
2017-04-02, 01:55:07,VALID,918.588,VALID,0.0,VALID,96.579,VALID,-0.02,VALID,20.123,VALID,8.0,VALID,0.433,
2017-04-02, 01:56:07,VALID,918.596,VALID,0.0,VALID,96.457,VALID,-0.005,VALID,20.135,VALID,20.0,VALID,0.502,
2017-04-02, 01:57:07,VALID,918.593,VALID,0.0,VALID,96.391,VALID,-0.023,VALID,20.152,VALID,17.0,VALID,0.305,
2017-04-02, 01:58:07,VALID,918.595,VALID,0.0,VALID,96.316,VALID,-0.021,VALID,20.163,VALID,11.0,VALID,0.364,
2017-04-02, 01:59:07,VALID,918.599,VALID,0.0,VALID,96.159,VALID,-0.035,VALID,20.161,VALID,9.0,VALID,0.344,
2017-04-02, 02:00:07,VALID,918.59,VALID,0.0,VALID,96.02,VALID,-0.03,VALID,20.132,VALID,351.0,VALID,0.686,
2017-04-02, 02:01:07,VALID,918.584,VALID,0.0,VALID,96.081,VALID,-0.034,VALID,20.115,VALID,353.0,VALID,0.702,
2017-04-02, 02:02:07,VALID,918.59,VALID,0.0,VALID,96.086,VALID,-0.035,VALID,20.118,VALID,4.0,VALID,0.572,
2017-04-02, 02:03:07,VALID,918.594,VALID,0.0,VALID,96.04,VALID,-0.037,VALID,20.12,VALID,349.0,VALID,0.48,
2017-04-02, 02:04:07,VALID,918.592,VALID,0.0,VALID,96.076,VALID,-0.018,VALID,20.122,VALID,348.0,VALID,0.749,
2017-04-02, 02:05:07,VALID,918.591,VALID,0.0,VALID,96.066,VALID,-0.016,VALID,20.136,VALID,308.0,VALID,0.248,
2017-04-02, 02:06:07,VALID,918.588,VALID,0.0,VALID,95.995,VALID,0.018,VALID,20.139,VALID,349.0,VALID,0.427,
2017-04-02, 02:07:07,VALID,918.572,VALID,0.0,VALID,95.989,VALID,0.017,VALID,20.132,VALID,348.0,VALID,0.81,
2017-04-02, 02:08:07,VALID,918.565,VALID,0.0,VALID,95.978,VALID,0.028,VALID,20.109,VALID,355.0,VALID,0.554,
2017-04-02, 02:09:07,VALID,918.562,VALID,0.0,VALID,96.085,VALID,0.021,VALID,20.099,VALID,346.0,VALID,0.719,
2017-04-02, 02:10:07,VALID,918.549,VALID,0.0,VALID,96.16,VALID,0.037,VALID,20.101,VALID,358.0,VALID,0.593,
2017-04-02, 02:11:07,VALID,918.54,VALID,0.0,VALID,96.162,VALID,0.042,VALID,20.099,VALID,356.0,VALID,1.017,
2017-04-02, 02:12:07,VALID,918.55,VALID,0.0,VALID,96.191,VALID,0.03,VALID,20.097,VALID,349.0,VALID,0.918,
2017-04-02, 02:13:07,VALID,918.551,VALID,0.0,VALID,96.222,VALID,0.032,VALID,20.099,VALID,343.0,VALID,1.062,
2017-04-02, 02:14:07,VALID,918.547,VALID,0.0,VALID,96.217,VALID,0.027,VALID,20.095,VALID,6.0,VALID,0.709,
2017-04-02, 02:15:07,VALID,918.538,VALID,0.0,VALID,96.195,VALID,0.012,VALID,20.092,VALID,360.0,VALID,0.974,
2017-04-02, 02:16:07,VALID,918.533,VALID,0.0,VALID,96.21,VALID,0.031,VALID,20.092,VALID,346.0,VALID,0.681,
2017-04-02, 02:17:07,VALID,918.524,VALID,0.0,VALID,96.236,VALID,0.033,VALID,20.081,VALID,357.0,VALID,0.932,
2017-04-02, 02:18:07,VALID,918.512,VALID,0.0,VALID,96.304,VALID,0.029,VALID,20.083,VALID,358.0,VALID,1.065,
2017-04-02, 02:19:07,VALID,918.505,VALID,0.0,VALID,96.337,VALID,0.028,VALID,20.088,VALID,347.0,VALID,1.066,
2017-04-02, 02:20:07,VALID,918.502,VALID,0.0,VALID,96.259,VALID,0.009,VALID,20.094,VALID,354.0,VALID,1.033,
2017-04-02, 02:21:07,VALID,918.499,VALID,0.0,VALID,96.219,VALID,-0.032,VALID,20.098,VALID,349.0,VALID,1.014,
2017-04-02, 02:22:07,VALID,918.497,VALID,0.0,VALID,96.223,VALID,-0.04,VALID,20.101,VALID,347.0,VALID,0.784,
2017-04-02, 02:23:07,VALID,918.467,VALID,0.0,VALID,96.268,VALID,-0.057,VALID,20.106,VALID,347.0,VALID,0.762,
2017-04-02, 02:24:07,VALID,918.451,VALID,0.0,VALID,96.298,VALID,-0.041,VALID,20.107,VALID,2.0,VALID,0.9,
2017-04-02, 02:25:07,VALID,918.44,VALID,0.0,VALID,96.293,VALID,-0.044,VALID,20.119,VALID,4.0,VALID,0.773,
2017-04-02, 02:26:07,VALID,918.421,VALID,0.0,VALID,96.17,VALID,-0.039,VALID,20.118,VALID,356.0,VALID,1.125,
2017-04-02, 02:27:07,VALID,918.416,VALID,0.0,VALID,96.18,VALID,-0.043,VALID,20.108,VALID,347.0,VALID,1.016,
2017-04-02, 02:28:07,VALID,918.427,VALID,0.0,VALID,96.184,VALID,-0.044,VALID,20.103,VALID,353.0,VALID,0.99,
2017-04-02, 02:29:07,VALID,918.445,VALID,0.0,VALID,96.244,VALID,-0.039,VALID,20.109,VALID,357.0,VALID,1.031,
2017-04-02, 02:30:07,VALID,918.454,VALID,0.0,VALID,96.22,VALID,-0.037,VALID,20.11,VALID,345.0,VALID,0.991,
2017-04-02, 02:31:07,VALID,918.462,VALID,0.0,VALID,96.165,VALID,-0.033,VALID,20.116,VALID,355.0,VALID,1.076,
2017-04-02, 02:32:07,VALID,918.458,VALID,0.0,VALID,96.177,VALID,-0.033,VALID,20.116,VALID,356.0,VALID,1.25,
2017-04-02, 02:33:07,VALID,918.474,VALID,0.0,VALID,96.108,VALID,-0.037,VALID,20.128,VALID,354.0,VALID,1.043,
2017-04-02, 02:34:07,VALID,918.468,VALID,0.0,VALID,96.055,VALID,-0.038,VALID,20.14,VALID,357.0,VALID,1.024,
2017-04-02, 02:35:07,VALID,918.486,VALID,0.0,VALID,95.987,VALID,-0.032,VALID,20.131,VALID,348.0,VALID,1.029,
2017-04-02, 02:36:07,VALID,918.487,VALID,0.0,VALID,96.13,VALID,0.001,VALID,20.126,VALID,340.0,VALID,0.976,
2017-04-02, 02:37:07,VALID,918.486,VALID,0.0,VALID,96.061,VALID,-0.001,VALID,20.131,VALID,351.0,VALID,1.008,
2017-04-02, 02:38:07,VALID,918.488,VALID,0.0,VALID,96.016,VALID,0.013,VALID,20.155,VALID,16.0,VALID,0.772,
2017-04-02, 02:39:07,VALID,918.485,VALID,0.0,VALID,95.877,VALID,-0.0,VALID,20.167,VALID,352.0,VALID,0.954,
2017-04-02, 02:40:07,VALID,918.484,VALID,0.0,VALID,95.745,VALID,-0.007,VALID,20.164,VALID,356.0,VALID,0.874,
2017-04-02, 02:41:07,VALID,918.472,VALID,0.0,VALID,95.765,VALID,-0.003,VALID,20.176,VALID,358.0,VALID,0.702,
2017-04-02, 02:42:07,VALID,918.456,VALID,0.0,VALID,95.705,VALID,0.004,VALID,20.177,VALID,1.0,VALID,0.998,
2017-04-02, 02:43:07,VALID,918.439,VALID,0.0,VALID,95.656,VALID,0.013,VALID,20.173,VALID,4.0,VALID,1.061,
2017-04-02, 02:44:07,VALID,918.427,VALID,0.0,VALID,95.614,VALID,0.002,VALID,20.173,VALID,358.0,VALID,1.107,
2017-04-02, 02:45:07,VALID,918.412,VALID,0.0,VALID,95.478,VALID,-0.006,VALID,20.174,VALID,355.0,VALID,0.871,
2017-04-02, 02:46:07,VALID,918.384,VALID,0.0,VALID,95.472,VALID,0.004,VALID,20.168,VALID,3.0,VALID,0.897,
2017-04-02, 02:47:07,VALID,918.371,VALID,0.0,VALID,95.597,VALID,-0.002,VALID,20.166,VALID,8.0,VALID,0.634,
2017-04-02, 02:48:07,VALID,918.363,VALID,0.0,VALID,95.566,VALID,0.008,VALID,20.175,VALID,359.0,VALID,0.567,
2017-04-02, 02:49:07,VALID,918.332,VALID,0.0,VALID,95.555,VALID,0.003,VALID,20.174,VALID,359.0,VALID,0.54,
2017-04-02, 02:50:07,VALID,918.315,VALID,0.0,VALID,95.453,VALID,0.001,VALID,20.164,VALID,3.0,VALID,1.013,
2017-04-02, 02:51:07,VALID,918.314,VALID,0.0,VALID,95.371,VALID,0.009,VALID,20.146,VALID,10.0,VALID,1.0,
2017-04-02, 02:52:07,VALID,918.297,VALID,0.0,VALID,95.431,VALID,0.001,VALID,20.148,VALID,358.0,VALID,0.721,
2017-04-02, 02:53:07,VALID,918.278,VALID,0.0,VALID,95.43,VALID,0.006,VALID,20.147,VALID,360.0,VALID,1.052,
2017-04-02, 02:54:07,VALID,918.263,VALID,0.0,VALID,95.386,VALID,-0.008,VALID,20.148,VALID,357.0,VALID,1.091,
2017-04-02, 02:55:07,VALID,918.254,VALID,0.0,VALID,95.249,VALID,-0.003,VALID,20.157,VALID,347.0,VALID,0.946,
2017-04-02, 02:56:07,VALID,918.245,VALID,0.0,VALID,95.08,VALID,-0.007,VALID,20.16,VALID,350.0,VALID,1.073,
2017-04-02, 02:57:07,VALID,918.25,VALID,0.0,VALID,95.053,VALID,-0.028,VALID,20.159,VALID,337.0,VALID,0.958,
2017-04-02, 02:58:07,VALID,918.255,VALID,0.0,VALID,95.083,VALID,-0.02,VALID,20.152,VALID,348.0,VALID,0.862,
2017-04-02, 02:59:07,VALID,918.259,VALID,0.0,VALID,95.089,VALID,-0.012,VALID,20.159,VALID,352.0,VALID,1.144,
2017-04-02, 03:00:07,VALID,918.283,VALID,0.0,VALID,94.984,VALID,-0.004,VALID,20.175,VALID,355.0,VALID,0.621,
2017-04-02, 03:01:07,VALID,918.299,VALID,0.0,VALID,94.987,VALID,-0.004,VALID,20.187,VALID,340.0,VALID,0.057,
2017-04-02, 03:02:07,VALID,918.317,VALID,0.0,VALID,95.103,VALID,-0.001,VALID,20.188,VALID,326.0,VALID,0.254,
2017-04-02, 03:03:07,VALID,918.326,VALID,0.0,VALID,95.253,VALID,-0.011,VALID,20.191,VALID,7.0,VALID,0.18,
2017-04-02, 03:04:07,VALID,918.322,VALID,0.0,VALID,95.526,VALID,-0.014,VALID,20.2,VALID,274.0,VALID,0.178,
2017-04-02, 03:05:07,VALID,918.312,VALID,0.0,VALID,95.831,VALID,-0.004,VALID,20.184,VALID,261.0,VALID,0.001,
2017-04-02, 03:06:07,VALID,918.299,VALID,0.0,VALID,96.065,VALID,-0.015,VALID,20.186,VALID,261.0,VALID,0.0,
2017-04-02, 03:07:07,VALID,918.299,VALID,0.0,VALID,96.128,VALID,0.003,VALID,20.187,VALID,261.0,VALID,0.004,
2017-04-02, 03:08:07,VALID,918.277,VALID,0.0,VALID,96.186,VALID,-0.019,VALID,20.191,VALID,310.0,VALID,0.427,
2017-04-02, 03:09:07,VALID,918.26,VALID,0.0,VALID,96.017,VALID,-0.017,VALID,20.15,VALID,331.0,VALID,0.549,
2017-04-02, 03:10:07,VALID,918.261,VALID,0.0,VALID,96.05,VALID,-0.01,VALID,20.139,VALID,340.0,VALID,0.285,
2017-04-02, 03:11:07,VALID,918.245,VALID,0.0,VALID,96.16,VALID,-0.014,VALID,20.131,VALID,340.0,VALID,0.364,
2017-04-02, 03:12:07,VALID,918.245,VALID,0.0,VALID,96.254,VALID,0.001,VALID,20.118,VALID,312.0,VALID,0.364,
2017-04-02, 03:13:07,VALID,918.232,VALID,0.0,VALID,96.5,VALID,-0.015,VALID,20.12,VALID,307.0,VALID,0.121,
2017-04-02, 03:14:07,VALID,918.221,VALID,0.0,VALID,96.668,VALID,-0.019,VALID,20.118,VALID,354.0,VALID,0.228,
2017-04-02, 03:15:07,VALID,918.214,VALID,0.0,VALID,96.644,VALID,-0.01,VALID,20.089,VALID,342.0,VALID,0.192,
2017-04-02, 03:16:07,VALID,918.199,VALID,0.0,VALID,96.671,VALID,0.005,VALID,20.065,VALID,348.0,VALID,0.433,
2017-04-02, 03:17:07,VALID,918.193,VALID,0.0,VALID,96.584,VALID,-0.008,VALID,20.049,VALID,342.0,VALID,0.637,
2017-04-02, 03:18:07,VALID,918.181,VALID,0.0,VALID,96.654,VALID,-0.02,VALID,20.047,VALID,337.0,VALID,0.582,
2017-04-02, 03:19:07,VALID,918.175,VALID,0.0,VALID,96.565,VALID,-0.007,VALID,20.036,VALID,333.0,VALID,0.622,
2017-04-02, 03:20:07,VALID,918.169,VALID,0.0,VALID,96.471,VALID,-0.001,VALID,20.046,VALID,360.0,VALID,0.725,
2017-04-02, 03:21:07,VALID,918.154,VALID,0.0,VALID,96.403,VALID,-0.02,VALID,20.055,VALID,343.0,VALID,0.828,
2017-04-02, 03:22:07,VALID,918.158,VALID,0.0,VALID,96.397,VALID,-0.018,VALID,20.07,VALID,342.0,VALID,0.981,
2017-04-02, 03:23:07,VALID,918.142,VALID,0.0,VALID,96.087,VALID,-0.003,VALID,20.077,VALID,352.0,VALID,1.049,
2017-04-02, 03:24:07,VALID,918.141,VALID,0.0,VALID,95.938,VALID,-0.008,VALID,20.086,VALID,326.0,VALID,0.852,
2017-04-02, 03:25:07,VALID,918.136,VALID,0.0,VALID,95.897,VALID,-0.014,VALID,20.112,VALID,329.0,VALID,0.363,
2017-04-02, 03:26:07,VALID,918.131,VALID,0.0,VALID,95.972,VALID,-0.013,VALID,20.121,VALID,332.0,VALID,0.521,
2017-04-02, 03:27:07,VALID,918.125,VALID,0.0,VALID,95.918,VALID,-0.011,VALID,20.112,VALID,327.0,VALID,0.336,
2017-04-02, 03:28:06,VALID,918.124,VALID,0.0,VALID,96.028,VALID,-0.012,VALID,20.11,VALID,10.0,VALID,0.241,
2017-04-02, 03:29:06,VALID,918.134,VALID,0.0,VALID,96.008,VALID,0.005,VALID,20.109,VALID,341.0,VALID,0.675,
2017-04-02, 03:30:06,VALID,918.137,VALID,0.0,VALID,95.92,VALID,-0.018,VALID,20.103,VALID,360.0,VALID,0.478,
2017-04-02, 03:31:06,VALID,918.146,VALID,0.0,VALID,95.991,VALID,-0.014,VALID,20.097,VALID,339.0,VALID,1.032,
2017-04-02, 03:32:06,VALID,918.15,VALID,0.0,VALID,95.718,VALID,-0.024,VALID,20.092,VALID,346.0,VALID,1.021,
2017-04-02, 03:33:06,VALID,918.168,VALID,0.0,VALID,95.711,VALID,-0.017,VALID,20.105,VALID,4.0,VALID,0.77,
2017-04-02, 03:34:06,VALID,918.162,VALID,0.0,VALID,95.653,VALID,-0.012,VALID,20.104,VALID,343.0,VALID,0.592,
2017-04-02, 03:35:06,VALID,918.155,VALID,0.0,VALID,95.609,VALID,-0.011,VALID,20.11,VALID,326.0,VALID,0.106,
2017-04-02, 03:36:06,VALID,918.152,VALID,0.0,VALID,95.71,VALID,0.023,VALID,20.118,VALID,267.0,VALID,0.065,
2017-04-02, 03:37:06,VALID,918.152,VALID,0.0,VALID,95.783,VALID,0.011,VALID,20.137,VALID,266.0,VALID,0.044,
2017-04-02, 03:38:06,VALID,918.13,VALID,0.0,VALID,95.911,VALID,0.007,VALID,20.13,VALID,266.0,VALID,0.001,
2017-04-02, 03:39:06,VALID,918.113,VALID,0.0,VALID,95.952,VALID,0.019,VALID,20.12,VALID,266.0,VALID,0.06,